Hourly Data Report for October 13, 2015

All times are specified in Local Standard Time (LST). Add 1 hour to adjust for Daylight Saving Time where and when it is observed.

SAINT JOHN A
NEW BRUNSWICK

45°18'58.000" N
65°53'24.000" W
108.80 m
8104901
71609
YSJ

Download Data

Hourly Data (October 2015)
Hourly Data Report for October 13, 2015
Temp Definition
°C
Dew Point Temp Definition
°C
Rel Hum Definition
%
Wind Dir Definition
10's deg

Wind Spd Definition
km/h
Visibility Definition
km
Stn Press Definition
kPa
Hmdx Definition


Wind Chill Definition


Weather Definition


TIME
00:00 Legend Double Dagger 11.0 10.7 98 15 8 24.1 99.69     LegendNANA
01:00 Legend Double Dagger 11.0 10.7 98 17 11 24.1 99.69     LegendNANA
02:00 Legend Double Dagger 10.1 9.7 97 16 7 24.1 99.69     Mainly Clear
03:00 Legend Double Dagger 10.3 9.9 97 16 10 24.1 99.61     LegendNANA
04:00 Legend Double Dagger 11.1 10.8 98 15 14 0.8 99.59     Fog
05:00 Legend Double Dagger 12.6 12.6 100 16 17 1.2 99.59     Fog
06:00 Legend Double Dagger 12.7 12.7 100 18 11 0.4 99.54     Fog
07:00 Legend Double Dagger 12.9 12.9 100 13 15 1.6 99.48     Fog
08:00 Legend Double Dagger 13.5 13.5 100 13 14 1.6 99.46     Fog
09:00 Legend Double Dagger 14.3 14.3 100 12 4 4.8 99.42     Fog
10:00 Legend Double Dagger 14.8 14.5 98 12 14 8.1 99.29     Fog
11:00 Legend Double Dagger 15.3 14.8 97 10 17 24.1 99.19     Cloudy
12:00 Legend Double Dagger 15.5 15.2 98 10 17 4.8 99.09     Rain Showers,Fog
13:00 Legend Double Dagger 15.5 15.4 99 9 4 4.8 98.96     Moderate Rain Showers,Fog
14:00 Legend Double Dagger 17.0 16.8 99 11 16 16.1 98.79     Rain Showers
15:00 Legend Double Dagger 17.4 17.2 99 12 17 16.1 98.71     Rain Showers
16:00 Legend Double Dagger 17.1 16.9 99 13 16 3.2 98.63     Rain Showers,Fog
17:00
18:00 Legend Double Dagger 16.2 16.1 99 20 31 0.8 98.54     Drizzle,Fog
19:00 Legend Double Dagger 15.2 15.2 100 20 30 0.8 98.54     Fog
20:00 Legend Double Dagger 14.3 14.3 100 21 26 0.6 98.59     Fog
21:00 Legend Double Dagger 13.6 13.6 100 20 21 0.6 98.62     Fog
22:00 Legend Double Dagger 13.0 13.0 100 20 21 0.6 98.62     Fog
23:00 Legend Double Dagger 12.8 12.8 100 20 19 0.6 98.60     Fog

Notes on Data Quality.

Legend

  • E = Estimated
  • M = Missing
  • NA = Not Available
  • ‡ = Partner data that is not subject to review by the National Climate Archives
Date modified: